Regional Weather Roundup
Issued by NWS

Home | Current Version | Previous Version | Graphics & Text | Print | Product List | Glossary Off
Versions: 1 2 3 4 5 6 7 8 9 10 11 12 13 14 15 16 17 18 19 20 21 22 23 24 25 26 27 28 29 30 31 32 33 34 35 36 37 38 39 40 41 42 43 44 45 46 47 48 49 50

000
ASUS45 KCYS 290010
RWRWY

WYOMING REGIONAL WEATHER ROUNDUP
NATIONAL WEATHER SERVICE CHEYENNE WY
600 PM MDT TUE JUL 28 2015

NOTE:  "FAIR" INDICATES FEW OR NO CLOUDS BELOW 12,000 FEET
WITH NO SIGNIFICANT WEATHER AND/OR OBSTRUCTIONS TO VISIBILITY.

WYZ001-290100-
YELLOWSTONE NATIONAL PARK

CITY           SKY/WX    TMP DP  RH WIND       PRES   REMARKS
LK YELLOWSTONE   N/A     52  29  41 VRB5      30.42S
6HR MIN TEMP:  44; 6HR MAX TEMP:  55;

W YELLOWSTONE  NOT AVBL

$$
WYZ002>013-054>058-071-098>099-290100-
NORTHERN WYOMING

CITY           SKY/WX    TMP DP  RH WIND       PRES   REMARKS
JACKSON        FAIR      63  30  29 NW13      30.34S
CODY           FAIR      68  30  24 W10G21    30.22S
GREYBULL       FAIR      76  30  18 N13       30.15S
6HR MIN TEMP:  68; 6HR MAX TEMP:  76;

WORLAND        FAIR      75  30  19 N9G17     30.17R
6HR MIN TEMP:  70; 6HR MAX TEMP:  76;

SHERIDAN       FAIR      73  34  23 NW24G31   30.14S
6HR MIN TEMP:  65; 6HR MAX TEMP:  75;

BUFFALO        FAIR      69  36  29 N18G24    30.20R
6HR MIN TEMP:  64; 6HR MAX TEMP:  71;

GILLETTE       FAIR      72  35  25 NW18G25   30.15S
6HR MIN TEMP:  68; 6HR MAX TEMP:  72;

HULETT         FAIR      68  37  32 NW10G17   30.15S
NEWCASTLE      FAIR      70  32  24 NW18G28   30.15S

$$
WYZ014>020-022>026-101>103-290100-
CENTRAL WYOMING

CITY           SKY/WX    TMP DP  RH WIND       PRES   REMARKS
BIG PINEY      FAIR      68  21  16 NE9       30.33S
6HR MIN TEMP:  59; 6HR MAX TEMP:  69;

PINEDALE       FAIR      63  27  25 NW10G17   30.34F
DUBOIS         FAIR      61  27  27 N15G25    30.32S
LANDER         FAIR      75  24  15 N9        30.19R
6HR MIN TEMP:  64; 6HR MAX TEMP:  76;

RIVERTON       FAIR      75  17  11 N13G18    30.20S
6HR MIN TEMP:  68; 6HR MAX TEMP:  76;

CASPER         FAIR      76  11   8 NW16G22   30.18S
6HR MIN TEMP:  70; 6HR MAX TEMP:  77;

DOUGLAS        FAIR      78  17  10 W18G28    30.17R
6HR MIN TEMP:  72; 6HR MAX TEMP:  79;


$$
WYZ021-027>030-104>119-290100-
SOUTHERN WYOMING

CITY           SKY/WX    TMP DP  RH WIND       PRES   REMARKS
EVANSTON       FAIR      70  10  10 W9G17     30.33S
6HR MIN TEMP:  61; 6HR MAX TEMP:  72;

KEMMERER       FAIR      68  19  15 W9G21     30.35S
FORT BRIDGER   CLEAR     73  14  10 NW12G18   30.34F
ROCK SPRINGS   FAIR      69  14  12 W14G23    30.30S
6HR MIN TEMP:  61; 6HR MAX TEMP:  71;

DIXON          FAIR      77  23  13 W8        30.29F
RAWLINS        FAIR      72  11   9 W15G25    30.30S
6HR MIN TEMP:  64; 6HR MAX TEMP:  73;

SARATOGA       FAIR      72  18  13 W14       30.32F
LARAMIE        FAIR      73  23  15 W16G25    30.28R
6HR MIN TEMP:  68; 6HR MAX TEMP:  76;

CHEYENNE       FAIR      79  34  19 SE12      30.20S
6HR MIN TEMP:  74; 6HR MAX TEMP:  82;

TORRINGTON     FAIR      82  23  11 VRB5      30.09S
6HR MIN TEMP:  74; 6HR MAX TEMP:  83;

PINE BLUFFS    FAIR      79  21  11 N12       30.18R

$$



USA.gov is the U.S. government's official web portal to all federal, state and local government web resources and services.